{"data":{"norad_id":62796,"epoch":"2026-05-25T03:26:08.497824Z","epoch_age_seconds":62955,"freshness":"FRESH","line1":"1 62796U 25016M   26145.14315391  .00000092  00000+0  12462-3 0  9997","line2":"2 62796  88.9736  86.0866 0013073 221.4758 138.5402 13.51013449 69357","mean_motion":13.51013449,"eccentricity":0.0013073,"inclination_deg":88.9736,"raan_deg":86.0866,"arg_perigee_deg":221.4758,"mean_anomaly_deg":138.5402,"bstar":0.00012462,"rev_number":6935,"period_min":106.58665175138,"perigee_km":1058.79713442,"apogee_km":1078.2671956189,"semimajor_km":7446.6691650194,"source":"CELESTRAK","updated_at":"2026-05-25T13:38:03.275943Z"}}